Content
SEND FEEDBACK

Daily
Averages
Monthly
Summary
United States of America

BEDFORD, IOWA


Home > North America > United States > Iowa
Elevation: 1160 feet     Latitude: 40 40N     Longitude: 094 43W

WEATHER
 
SELECT A DAY
Number of Records: 410,484;   Date Range: 4/23/95 - 7/26/14
 
SHARE

PRINT THIS DATA

[ ← Previous Day ]
WEATHER ALMANAC - JANUARY 31, 2013
[ Next Day → ]
[ °C ]   °F
Weather ElementAverageHighLow
Temperature7.8 °F15.8 °F (12:35 am)-0.4 °F (10:55 pm)
Dewpoint-3.5 °F10.4 °F (12:55 am)-11.2 °F (10:55 pm)
Humidity60.4 %79 % (12:55 am)48 % (4:15 pm)
Barometer30.18 in30.43 in (10:55 pm)29.93 in (12:35 am)
Wind Speed11.2 mph23 mph (11:15 am)
Wind Gust34.5 mph (11:15 am)
Weather ElementAverage
Visibility9.7 mi
Wind DirectionWNW (307 °)

Weather ElementTotal
Precipitation---
Heating Degree Days57.3 (Base 65)
Averaged from 67 records on January 31, 2013
WEATHER CONDITIONS BREAKOUT
WIND DIRECTION BREAKOUT
WEATHER BY HOUR - JANUARY 31, 2013
[ °C ]   °F
Local TimeTemperatureDewpointHumidityBarometerVisibilityWind DirectionWind SpeedGust SpeedPrecipitationEventsConditions
12:35 AM15.8 °F8.6 °F73 %29.93 in10.0 miWest (260°)3.5 mphOvercast
12:55 AM15.8 °F10.4 °F79 %29.94 in10.0 miCalmOvercast
1:15 AM15.8 °F10.4 °F79 %29.94 in10.0 miNW (310°)3.5 mphOvercast
1:35 AM15.8 °F8.6 °F73 %29.94 in10.0 miNW (320°)8.1 mphOvercast
1:55 AM14.0 °F6.8 °F73 %29.94 in10.0 miNNW (330°)6.9 mphScattered Clouds
2:15 AM14.0 °F3.2 °F62 %29.94 in10.0 miNNW (340°)8.1 mphMostly Cloudy
2:35 AM12.2 °F3.2 °F67 %29.95 in10.0 miNNW (330°)9.2 mphOvercast
2:55 AM12.2 °F3.2 °F67 %29.96 in10.0 miNW (320°)8.1 mphOvercast
3:15 AM12.2 °F3.2 °F67 %29.95 in10.0 miNW (320°)9.2 mphOvercast
3:35 AM12.2 °F3.2 °F67 %29.96 in10.0 miNW (320°)9.2 mph12.7 mphOvercast
3:55 AM12.2 °F3.2 °F67 %29.96 in10.0 miNW (320°)11.5 mphOvercast
4:15 AM12.2 °F3.2 °F67 %29.95 in10.0 miNW (320°)9.2 mph16.1 mphOvercast
4:35 AM10.4 °F1.4 °F67 %29.96 in10.0 miNW (320°)11.5 mphOvercast
4:55 AM10.4 °F1.4 °F67 %29.98 in10.0 miNW (320°)13.8 mph18.4 mphOvercast
5:15 AM10.4 °F1.4 °F67 %29.99 in10.0 miNW (310°)10.4 mph16.1 mphOvercast
5:35 AM10.4 °F-0.4 °F62 %30.00 in10.0 miNW (310°)8.1 mphOvercast
5:55 AM8.6 °F-0.4 °F67 %30.01 in10.0 miWNW (300°)8.1 mphScattered Clouds
6:15 AM8.6 °F-2.2 °F62 %30.02 in10.0 miNNW (330°)8.1 mphScattered Clouds
6:55 AM6.8 °F-5.8 °F56 %30.03 in10.0 miNW (320°)10.4 mph17.3 mphMostly Cloudy
7:15 AM6.8 °F-5.8 °F56 %30.04 in10.0 miNNW (330°)10.4 mphScattered Clouds
7:35 AM6.8 °F-5.8 °F56 %30.04 in10.0 miNNW (330°)9.2 mphClear
7:55 AM6.8 °F-4.0 °F61 %30.07 in10.0 miWNW (300°)11.5 mph17.3 mphClear
8:15 AM6.8 °F-4.0 °F61 %30.07 in10.0 miNW (310°)11.5 mphClear
8:35 AM6.8 °F-5.8 °F56 %30.09 in10.0 miNW (320°)12.7 mphClear
8:55 AM6.8 °F-4.0 °F61 %30.10 in10.0 miNW (310°)9.2 mphClear
9:15 AM8.6 °F-5.8 °F52 %30.10 in10.0 miNW (320°)17.3 mph21.9 mphClear
9:35 AM8.6 °F-4.0 °F57 %30.12 in10.0 miNW (320°)11.5 mph19.6 mphClear
9:55 AM8.6 °F-4.0 °F57 %30.13 in10.0 miNW (310°)15.0 mph24.2 mphClear
10:15 AM8.6 °F-4.0 °F57 %30.15 in10.0 miNW (320°)16.1 mph25.3 mphClear
10:35 AM8.6 °F-4.0 °F57 %30.15 in10.0 miNNW (330°)16.1 mph24.2 mphClear
10:55 AM8.6 °F-5.8 °F52 %30.18 in10.0 miNW (320°)19.6 mph26.5 mphClear
11:15 AM8.6 °F-2.2 °F62 %30.19 in7.0 miNW (320°)23.0 mph34.5 mphClear
11:35 AM8.6 °F-2.2 °F62 %30.20 in7.0 miNW (320°)21.9 mph32.2 mphScattered Clouds
11:55 AM8.6 °F-4.0 °F57 %30.22 in10.0 miNW (310°)16.1 mph28.8 mphScattered Clouds
12:15 PM8.6 °F-4.0 °F57 %30.23 in7.0 miNW (320°)19.6 mph28.8 mphScattered Clouds
12:35 PM8.6 °F-2.2 °F62 %30.23 in7.0 miNW (320°)16.1 mph28.8 mphScattered Clouds
12:55 PM8.6 °F-4.0 °F57 %30.24 in10.0 miNW (310°)17.3 mph31.1 mphScattered Clouds
1:15 PM8.6 °F-5.8 °F52 %30.24 in10.0 miNW (310°)17.3 mph31.1 mphScattered Clouds
1:35 PM8.6 °F-5.8 °F52 %30.24 in10.0 miNW (310°)18.4 mph26.5 mphScattered Clouds
1:55 PM8.6 °F-5.8 °F52 %30.25 in7.0 miNW (310°)20.7 mph27.6 mphClear
2:15 PM8.6 °F-4.0 °F57 %30.26 in7.0 miNW (310°)19.6 mph27.6 mphClear
2:35 PM8.6 °F-5.8 °F52 %30.27 in10.0 miNNW (330°)13.8 mph24.2 mphClear
2:55 PM8.6 °F-4.0 °F57 %30.27 in10.0 miNW (320°)12.7 mph24.2 mphClear
3:15 PM8.6 °F-5.8 °F52 %30.28 in10.0 miNW (320°)16.1 mph25.3 mphClear
3:35 PM8.6 °F-5.8 °F52 %30.29 in10.0 miNW (320°)15.0 mph25.3 mphClear
3:55 PM8.6 °F-5.8 °F52 %30.29 in10.0 miNW (310°)16.1 mph23.0 mphClear
4:15 PM8.6 °F-7.6 °F48 %30.30 in10.0 miWNW (300°)18.4 mph25.3 mphClear
4:35 PM8.6 °F-7.6 °F48 %30.31 in10.0 miNW (320°)17.3 mph24.2 mphClear
4:55 PM6.8 °F-7.6 °F52 %30.31 in10.0 miNW (310°)16.1 mph23.0 mphClear
5:15 PM6.8 °F-7.6 °F52 %30.32 in10.0 miNW (310°)12.7 mph20.7 mphClear
5:35 PM6.8 °F-7.6 °F52 %30.32 in10.0 miNW (320°)10.4 mph18.4 mphClear
5:55 PM5.0 °F-7.6 °F56 %30.33 in10.0 miNNW (330°)8.1 mphClear
6:15 PM5.0 °F-7.6 °F56 %30.34 in10.0 miNW (320°)9.2 mphClear
6:35 PM3.2 °F-7.6 °F61 %30.35 in10.0 miNW (320°)6.9 mphClear
7:15 PM3.2 °F-7.6 °F61 %30.37 in10.0 miNW (310°)8.1 mphClear
7:35 PM3.2 °F-7.6 °F61 %30.37 in10.0 miNW (320°)8.1 mphClear
7:55 PM3.2 °F-7.6 °F61 %30.38 in10.0 miWNW (300°)5.8 mphClear
8:15 PM1.4 °F-7.6 °F66 %30.38 in10.0 miWNW (300°)8.1 mphClear
8:35 PM3.2 °F-7.6 °F61 %30.38 in10.0 miNW (320°)9.2 mphClear
8:55 PM1.4 °F-7.6 °F66 %30.38 in10.0 miNNW (340°)5.8 mphClear
9:15 PM1.4 °F-9.4 °F61 %30.39 in10.0 miNorth (350°)5.8 mphClear
9:35 PM1.4 °F-9.4 °F61 %30.39 in10.0 miNNW (340°)4.6 mphClear
10:15 PM1.4 °F-9.4 °F61 %30.42 in10.0 miWNW (300°)4.6 mphClear
10:35 PM1.4 °F-9.4 °F61 %30.42 in10.0 miWNW (300°)4.6 mphClear
10:55 PM-0.4 °F-11.2 °F60 %30.43 in10.0 miCalmClear
11:15 PM-0.4 °F-9.4 °F66 %30.43 in10.0 miWNW (290°)4.6 mphClear
11:35 PM-0.4 °F-9.4 °F66 %30.43 in10.0 miNW (310°)4.6 mphClear
Hourly data recorded from KICL, located miles away from Bedford, Iowa







STORIES FROM OUR PARTNERS